#timestamp,LO_Frequency,Hit,StdDev 
1564621215.5,286046987.0,N
1564621235.3,286046986.2,N
1564621255.1,286046986.5,N
1564621275.9,286046982.2,N
1564621295.7,286046982.9,N
1564621315.6,286046981.2,N
1564621335.4,286046980.1,N
1564621355.2,286046979.7,N
1564621375.1,286046979.6,N
1564621376.0,286046979.6,N
1564621395.8,286046979.0,N
1564621415.6,286046981.0,N
1564621435.5,286046984.6,N
1564621455.3,286046990.0,N
1564621475.2,286046992.5,N
1564621495.9,286046995.0,N
1564621515.7,286046999.1,N
1564621535.6,286046997.8,N
1564621555.4,286046997.1,N
1564621575.2,286046995.0,N
1564621595.1,286046993.4,N
1564621596.0,286046993.4,N
1564621615.8,286046996.3,N
1564621635.7,286046996.5,N
1564621655.5,286047001.1,N
1564621675.3,286046999.9,N
1564621695.2,286047000.3,N
1564621715.0,286047001.8,N
1564621715.9,286047001.8,N
1564621735.7,286047004.2,N
1564621755.6,286047004.8,N
1564621775.4,286047009.2,N
1564621795.3,286047009.0,N
1564621815.1,286047007.2,N
1564621816.0,286047007.2,N
1564621835.8,286047006.8,N
1564621855.7,286047008.6,N
1564621875.5,286047007.8,N
1564621895.3,286047010.4,N
1564621915.2,286047012.1,N
1564621935.0,286047011.4,N
1564621935.9,286047011.4,N
1564621955.8,286047013.9,N
1564621975.6,286047013.8,N
1564621995.4,286047015.4,N
1564622015.3,286047016.9,N
1564622035.1,286047019.1,N
1564622055.9,286047019.7,N
1564622075.7,286047020.0,N
1564622095.5,286047018.9,N
1564622115.4,286047019.5,N
1564622135.2,286047017.4,N
1564622155.0,286047017.8,N
1564622155.9,286047017.8,N
1564622175.8,286047020.3,Y
1564622195.6,286047010.0,P
1564622215.5,286047015.1,P
1564622235.3,286047016.6,P
1564622255.1,286047018.6,Y
1564622275.9,286047005.9,P
1564622295.7,286047005.4,N
1564622315.6,286047005.3,N
1564622335.4,286047005.2,N
1564622355.2,286047004.6,N
1564622375.1,286047005.2,N
1564622376.0,286047005.2,N
1564622395.8,286047004.7,N
1564622415.7,286047004.6,N
1564622435.5,286047007.6,Y
1564622455.3,286047002.1,P
1564622475.2,286047005.4,N
1564622495.0,286047008.3,P
1564622495.9,286047008.3,Y
1564622515.7,286047004.5,P
1564622535.6,286047006.1,P
1564622555.4,286047009.0,P
1564622575.3,286047011.7,Y
1564622595.1,286047005.2,P
1564622615.8,286047006.9,P
1564622635.7,286047006.2,P
1564622655.5,286047010.1,Y
1564622675.4,286047006.7,P
1564622695.2,286047008.8,P
1564622715.0,286047009.2,P
1564622715.9,286047009.2,Y
1564622735.8,286047000.4,P
1564622755.6,286047000.5,N
1564622775.5,286047002.6,N
1564622795.3,286047001.4,N
1564622815.1,286047002.6,N
1564622835.9,286047001.4,N
1564622855.7,286047003.2,N
1564622875.5,286047002.9,N
1564622895.4,286047004.7,N
1564622915.2,286047005.4,N
1564622935.1,286047003.3,N
1564622936.0,286047003.3,N
1564622955.8,286047003.1,N
1564622975.6,286047004.9,N
1564622995.5,286047004.9,N
1564623015.3,286047005.7,Y
1564623035.1,286047001.8,P
1564623055.9,286047003.4,P
1564623075.7,286047005.9,P
1564623095.6,286047004.0,N
1564623115.4,286047001.6,N
1564623135.2,286047004.3,N
1564623155.1,286047003.8,N
1564623156.0,286047003.8,N
1564623175.8,286047003.6,N
1564623195.6,286047004.0,Y
1564623215.5,286047000.1,P
1564623235.3,286047000.3,N
1564623255.2,286047011.9,P
1564623275.9,286046999.4,N
1564623295.7,286047000.9,N
1564623315.6,286047000.4,N
1564623335.4,286047002.4,N
1564623355.2,286047001.3,N
1564623375.1,286047005.7,N
1564623376.0,286047005.7,N
1564623395.8,286047006.9,N
1564623415.7,286047007.0,N
1564623435.5,286047004.6,N
1564623455.3,286047010.8,Y
1564623475.2,286047007.6,P
1564623495.0,286047006.7,P
1564623495.9,286047006.7,P
1564623515.7,286047007.1,Y
1564623535.6,286047000.9,P
1564623555.4,286046999.8,N
1564623575.3,286047002.4,N
1564623595.1,286047000.2,N
1564623596.0,286047000.2,N
1564623615.8,286047001.2,N
1564623635.7,286047000.5,N
1564623655.5,286046999.9,N
1564623675.3,286047001.0,N
1564623695.2,286046997.4,N
1564623715.0,286046994.5,N
1564623715.9,286046994.5,N
1564623735.8,286046991.0,Y
1564623755.6,286046984.4,P
1564623775.4,286046979.4,N
1564623795.3,286046974.5,N
1564623815.1,286046971.3,Y
1564623835.9,286046983.1,P
1564623855.7,286046981.8,P
1564623875.5,286046978.2,P
1564623895.4,286046976.5,Y
1564623915.2,286046994.7,P
1564623935.0,286046991.4,N
1564623936.0,286046991.4,N
1564623955.8,286046988.2,N
1564623975.6,286046986.8,Y
1564623995.5,286046992.2,P
1564624015.3,286046994.1,P
1564624035.1,286046991.9,P
1564624055.9,286046992.3,Y
1564624075.7,286047002.3,P
1564624095.6,286047002.8,N
1564624115.4,286047000.1,N
1564624135.2,286046996.5,N
1564624155.1,286046996.5,N
1564624156.0,286046996.5,N
1564624175.8,286046999.1,N
1564624195.6,286046996.5,N
1564624215.5,286046996.7,N
1564624235.3,286046998.9,N
1564624255.2,286047000.7,N
1564624275.9,286047001.7,N
1564624295.7,286047003.5,N
1564624315.6,286047007.2,N
1564624335.4,286047005.2,N
1564624355.2,286047007.1,N
1564624375.1,286047006.9,N
1564624376.0,286047006.9,N
1564624395.8,286047008.2,N
1564624415.7,286047009.3,N
1564624435.5,286047014.7,Y
1564624455.3,286047017.9,P
1564624475.2,286047019.8,N
1564624495.0,286047018.9,N
1564624495.9,286047018.9,N
1564624515.8,286047021.4,Y
1564624535.6,286047009.1,P
1564624555.4,286047007.9,N
1564624575.3,286047006.6,N
1564624595.1,286047008.9,N
1564624615.8,286047008.4,N
1564624635.7,286047010.5,Y
1564624655.5,286046999.7,P
1564624675.4,286047001.6,N
1564624695.2,286047002.7,N
1564624715.0,286047000.3,N
1564624715.9,286047000.3,N
1564624735.8,286046998.5,N
1564624755.6,286046998.8,N
1564624775.4,286047000.3,N
1564624795.3,286047001.8,N
